User: anonymous   Login
Location: Unspecified
(0.0000°N, 0.0000°E)
Time: 14:49:40
(UTC+01:00)
Language:

Cosmos 1072 Rocket - Orbit

View from above orbital plane
View from above orbital plane
View from above satellite
View from above satellite

Ground track
Ground track

The orbit data is extracted from the following two-line orbital elements,

1 11239U 79003B   16038.69395972 +.00000017 +00000-0 +20426-5 0  9990
2 11239 082.9370 096.3567 0040099 338.8067 142.5507 13.75794850859465
Epoch (UTC): 07 February 2016 16:39:18
Eccentricity: 0.0040099
inclination: 82.9370°
perigee height: 949 km
apogee height: 1008 km
right ascension of ascending node: 96.3567°
argument of perigee: 338.8067°
revolutions per day: 13.75794850
mean anomaly at epoch: 142.5507°
orbit number at epoch: 85946

The dashed part of the orbit path shows where the satellite is in the earth's shadow,  

DLR